TIANQI 17

Satellite information

Favourite Embed

Satellite Type and Status

PAYLOADIN ORBIT

Key statistics

Satellite TIANQI 17 at a glance.

Uptime

208

Days in orbit

Revolutions

≈ 14.0

Per day

Orbit

LEO

Low Earth Orbit

Inclination

45.0

Latest

Satellite identification and parameters

Extended collection of information and parameters for TIANQI 17.

Object identification

Identified? True

Debris? False

Object name: TIANQI 17

International designator: 2025-105B

Object number (NORAD): 64059

Object ID (CCSDS): 64059

Country: PEOPLES REPUBLIC OF CHINA (PRC)

Current information (Y/N): Y

RCS size: MEDIUM

Orbital parameters

Period: 102.926 minutes

Inclination: 44.9786 deg

SMA: 7275.168 km

Apoapsis: 904.691 km

Periapsis: 889.374 km

RAAN: 133.6333 deg

Eccentricy: 0.00105265

Argument of periapsis: 216.5785 deg

Mean anomaly: 143.4329 deg

Mean motion: 13.99066172 rev/day

Mean motion (dot): 0.00000077 rev/day2

B* drag term: 0.00014116063 1/REarth

Two-line elements (TLE)

Creation date: Dec. 12, 2025, 10:14 a.m.

Reference frame: TEME

Reference center: EARTH

Epoch: Dec. 12, 2025, 4:50 a.m. UTC

TLE line 0: 0 TIANQI 17

TLE line 1: 1 64059U 25105B 25346.20151493 .00000077 00000-0 14116-3 0 9992

TLE line 2: 2 64059 44.9786 133.6333 0010526 216.5785 143.4329 13.99066172 29016

Live tracking on map

Real-time ground track for satellite TIANQI 17.

In-orbit conjunctions

There are no conjunctions computed for TIANQI 17, at the moment. Check back to stay up to date, as we update our databases every day.

Go to all conjunctions

Associated space launch

4 small satellites for LEO Internet of Things (IoT) communication purposes.

TIANQI 17 was lifted into orbit during the mission ‘Ceres-1S | Tianqi 16-18 & 20’, on board a Ceres-1S space rocket.

The launch took place on May 19, 2025, 7:38 a.m. from Oriental Spaceport mobile launch ship.

For more information about the launch, click the button.

Launch to space Ceres-1S | Tianqi 16-18 & 20
Ceres-1S | Tianqi 16-18 & 20

Agency: N/A

Status: Launch Successful

Launch date: May 19, 2025, 7:38 a.m. UTC

Rocket: Ceres-1S

Launch pad: Oriental Spaceport mobile launch ship

Location: Sea Launch

...

Latest news about this satellite

News about space launch
China launches classified comms satellite, conducts commercial sea launch

China has continued an uptick in launch activity with a Long March 7A mission to geosynchronous orbit and sea launch of a Ceres-1 solid rocket. The post China launches classified comms satellite, conducts commercial sea launch appeared first on SpaceNews...


Newsletter sign-up

Weekly statistics, charts and insights to help you stay on top of the space industry.